User: anonymous   Login
Location: Unspecified
(0.0000°N, 0.0000°E)
Time: 00:05:16
(UTC+00:00)
Language:

STARLINK-4363 - Orbit

View from above orbital plane
View from above orbital plane
View from above satellite
View from above satellite

Ground track
Ground track

The orbit is defined by the following mean orbital elements,

1 53220U          26145.42329966 +.00000000 +00000-0 -22419-2 0 00005
2 53220  97.4454 205.3310 0002607 138.6977 221.4448 15.05807625    01
Epoch (UTC): 25 May 2026 10:09:33
Eccentricity: 0.0002607
inclination: 97.4454°
perigee height: 547 km
apogee height: 551 km
right ascension of ascending node: 205.3310°
argument of perigee: 138.6977°
revolutions per day: 15.05807625
mean anomaly at epoch: 221.4448°

The dashed part of the orbit path shows where the satellite is in the earth's shadow,  

DLR